EW5393 Weather Reports


Display with metric or nautical units.
time (UTC)temp
F
wind
direction
speed
MPH
gust
MPH
rain 1hr
in
rain 24hr
in
rain mn
in
humidity
%
barometer
mb
20260831082306 56 53 1.0 1.0 0.00 0.00 0.00 74 1014.3
20260831081803 56 53 1.0 1.0 0.00 0.00 0.00 74 1014.1
20260831081304 57 53 1.0 1.0 0.00 0.00 0.00 73 1014.0
20260831080804 57 53 1.0 1.0 0.00 0.00 0.00 71 1014.0
20260831080304 57 53 1.0 1.0 0.00 0.00 0.00 68 1014.2
20260831075804 57 53 1.0 1.0 0.00 0.00 0.00 68 1014.1
20260831075306 57 53 1.0 1.0 0.00 0.00 0.00 68 1014.0
20260831074804 57 53 1.0 1.0 0.00 0.00 0.00 68 1013.9
20260831073803 57 53 1.0 1.0 0.00 0.00 0.00 68 1014.0
20260831073304 56 53 1.0 1.0 0.00 0.00 0.00 68 1013.9
20260831072306 56 53 1.0 1.0 0.00 0.00 0.00 69 1013.9
20260831071804 56 53 1.0 1.0 0.00 0.00 0.00 69 1013.9
20260831071305 56 53 1.0 1.0 0.00 0.00 0.00 69 1013.7
20260831070804 56 53 1.0 1.0 0.00 0.00 0.00 69 1013.8
20260831070304 56 53 1.0 1.0 0.00 0.00 0.00 69 1013.8
20260831065803 56 53 1.0 1.0 0.00 0.00 0.00 68 1013.5
20260831065306 56 53 1.0 1.0 0.00 0.00 0.00 68 1013.8
20260831064804 57 53 1.0 1.0 0.00 0.00 0.00 68 1013.4
20260831064304 57 53 1.0 1.0 0.00 0.00 0.00 68 1013.6
20260831063303 57 53 1.0 1.0 0.00 0.00 0.00 67 1013.6
20260831062804 57 53 1.0 1.0 0.00 0.00 0.00 67 1013.6
20260831062305 57 53 1.0 1.0 0.00 0.00 0.00 66 1013.6
20260831061304 57 53 1.0 1.0 0.00 0.00 0.00 66 1013.7
20260831060804 57 53 1.0 1.0 0.00 0.00 0.00 66 1013.6
20260831060304 57 53 1.0 1.0 0.00 0.00 0.00 66 1013.6
20260831055804 57 53 1.0 1.0 0.00 0.00 0.00 66 1013.4
20260831055306 57 53 1.0 1.0 0.00 0.00 0.00 66 1013.7
20260831054804 57 53 1.0 1.0 0.00 0.00 0.00 67 1013.4
20260831054304 57 53 1.0 1.0 0.00 0.00 0.00 67 1013.6
20260831053804 57 53 1.0 1.0 0.00 0.00 0.00 67 1013.6
20260831053304 57 53 1.0 1.0 0.00 0.00 0.00 67 1013.5
20260831052804 57 53 1.0 1.0 0.00 0.00 0.00 67 1013.7
20260831052306 57 53 1.0 1.0 0.00 0.00 0.00 66 1013.7
20260831051303 57 53 1.0 1.0 0.00 0.00 0.00 66 1013.6
20260831050804 57 53 1.0 1.0 0.00 0.00 0.00 66 1013.7
20260831050304 57 53 1.0 1.0 0.00 0.00 0.00 65 1013.6
20260831045804 57 53 1.0 1.0 0.00 0.00 0.00 65 1013.4
20260831045306 57 53 1.0 1.0 0.00 0.00 0.00 64 1013.5
20260831044804 57 53 1.0 1.0 0.00 0.00 0.00 63 1013.7
20260831044304 57 53 1.0 1.0 0.00 0.00 0.00 63 1013.6
20260831043804 57 53 1.0 1.0 0.00 0.00 0.00 63 1013.9
20260831043304 57 53 1.0 1.0 0.00 0.00 0.00 64 1013.7
20260831042306 56 53 1.0 1.0 0.00 0.00 0.00 64 1013.7
20260831041804 56 53 1.0 1.0 0.00 0.00 0.00 64 1013.6
20260831041304 57 53 1.0 1.0 0.00 0.00 0.00 64 1013.7
20260831040804 57 53 1.0 1.0 0.00 0.00 0.00 64 1013.8
20260831040304 57 53 1.0 1.0 0.00 0.00 0.00 63 1013.5
20260831035804 57 53 1.0 1.0 0.00 0.00 0.00 63 1013.7
20260831034804 57 53 1.0 1.0 0.00 0.00 0.00 62 1013.4
20260831034304 57 53 1.0 1.0 0.00 0.00 0.00 62 1013.4
20260831033804 57 53 1.0 1.0 0.00 0.00 0.00 61 1013.3
20260831033304 57 53 1.0 1.0 0.00 0.00 0.00 61 1013.1
20260831032804 58 53 1.0 1.0 0.00 0.00 0.00 61 1013.2
20260831032306 58 53 1.0 1.0 0.00 0.00 0.00 61 1013.2
20260831031804 58 53 1.0 1.0 0.00 0.00 0.00 61 1013.0
20260831031304 58 53 1.0 1.0 0.00 0.00 0.00 62 1012.9
20260831030804 58 53 1.0 1.0 0.00 0.00 0.00 64 1013.0
20260831030304 59 53 1.0 1.0 0.00 0.00 0.00 65 1012.6
20260831025804 59 53 1.0 1.0 0.00 0.00 0.00 68 1012.9
20260831025306 59 53 1.0 1.0 0.00 0.00 0.00 68 1012.9
20260831024804 59 53 1.0 1.0 0.00 0.00 0.00 68 1012.8
20260831024303 59 53 1.0 1.0 0.00 0.00 0.00 69 1012.9
20260831023804 59 53 1.0 1.0 0.00 0.00 0.00 69 1012.8
20260831023303 59 53 1.0 1.0 0.00 0.00 0.00 69 1012.7
20260831022306 60 53 1.0 1.0 0.00 0.00 0.00 69 1012.7
20260831021804 60 53 1.0 1.0 0.00 0.00 0.00 70 1012.7
20260831021304 60 53 1.0 1.0 0.00 0.00 0.00 69 1012.5
20260831020804 60 53 1.0 1.0 0.00 0.00 0.00 68 1012.4
20260831015803 61 53 1.0 1.0 0.00 0.00 0.00 66 1012.6
20260831015306 61 53 1.0 1.0 0.00 0.00 0.00 64 1012.4
20260831014803 61 53 1.0 1.0 0.00 0.00 0.00 64 1012.3
20260831014304 61 53 1.0 1.0 0.00 0.00 0.00 63 1012.5
20260831013804 61 53 1.0 1.0 0.00 0.00 0.00 63 1012.1
20260831013304 62 53 1.0 1.0 0.00 0.00 0.00 63 1012.3
20260831012804 62 53 1.0 1.0 0.00 0.00 0.00 64 1012.0
20260831012306 62 53 1.0 1.0 0.00 0.00 0.00 65 1011.9
20260831011303 62 53 1.0 1.0 0.00 0.00 0.00 64 1012.1
20260831010804 62 53 1.0 1.0 0.00 0.00 0.00 64 1012.1
20260831010304 62 53 1.0 1.0 0.00 0.00 0.00 63 1011.9
20260831005804 62 53 1.0 1.0 0.00 0.00 0.00 63 1011.8
20260831004804 63 53 1.0 1.0 0.00 0.00 0.00 63 1011.8
20260831004304 63 53 1.0 1.0 0.00 0.00 0.00 62 1011.7
20260831003804 63 53 1.0 1.0 0.00 0.00 0.00 61 1011.8
20260831003304 63 53 1.0 1.0 0.00 0.00 0.00 60 1011.5
20260831002804 63 53 1.0 1.0 0.00 0.00 0.00 60 1011.6
20260831002306 64 53 1.0 1.0 0.00 0.00 0.00 58 1011.7
20260831001804 64 53 1.0 1.0 0.00 0.00 0.00 57 1011.6
20260831001304 64 53 1.0 1.0 0.00 0.00 0.00 55 1011.7
20260831000804 65 53 1.0 1.0 0.00 0.00 0.00 55 1011.5
20260831000304 65 53 1.0 1.0 0.00 0.00 0.00 54 1011.4
20260830235803 64 53 1.0 1.0 0.00 0.00 0.00 54 1011.3
20260830235305 65 53 1.0 1.0 0.00 0.00 0.00 54 1011.3
20260830234804 65 53 1.0 1.0 0.00 0.00 0.00 53 1011.2
20260830234303 64 53 1.0 1.0 0.00 0.00 0.00 55 1011.3
20260830233304 64 53 1.0 1.0 0.00 0.00 0.00 54 1011.1
20260830232804 64 53 1.0 1.0 0.00 0.00 0.00 54 1011.0
20260830232306 65 53 1.0 1.0 0.00 0.00 0.00 54 1011.1
20260830231803 64 53 1.0 1.0 0.00 0.00 0.00 54 1010.8
20260830231304 64 53 1.0 1.0 0.00 0.00 0.00 55 1010.9
20260830230804 64 53 1.0 1.0 0.00 0.00 0.00 54 1010.8
20260830230303 64 53 1.0 1.0 0.00 0.00 0.00 55 1010.9
20260830225804 64 53 1.0 1.0 0.00 0.00 0.00 56 1010.8
20260830225305 64 53 1.0 1.0 0.00 0.00 0.00 56 1010.9
20260830224804 64 53 1.0 1.0 0.00 0.00 0.00 56 1010.8
20260830224304 64 53 1.0 1.0 0.00 0.00 0.00 56 1010.6
20260830223804 64 53 1.0 1.0 0.00 0.00 0.00 57 1010.9
20260830223304 64 53 1.0 1.0 0.00 0.00 0.00 56 1010.9
20260830222804 65 53 1.0 1.0 0.00 0.00 0.00 56 1010.9
20260830222306 65 53 1.0 1.0 0.00 0.00 0.00 56 1010.6
20260830221804 65 53 1.0 1.0 0.00 0.00 0.00 55 1010.7
20260830220803 65 53 1.0 1.0 0.00 0.00 0.00 56 1010.5
20260830220304 65 53 1.0 1.0 0.00 0.00 0.00 57 1010.5
20260830215305 64 53 1.0 1.0 0.00 0.00 0.00 57 1010.4
20260830214804 64 53 1.0 1.0 0.00 0.00 0.00 58 1010.6
20260830214304 64 53 1.0 1.0 0.00 0.00 0.00 58 1010.5
20260830213804 64 53 1.0 1.0 0.00 0.00 0.00 58 1010.2
20260830213304 64 53 1.0 1.0 0.00 0.00 0.00 58 1010.5
20260830212804 63 53 1.0 1.0 0.00 0.00 0.00 58 1010.4
20260830212306 63 53 1.0 1.0 0.00 0.00 0.00 57 1010.4
20260830211803 63 53 1.0 1.0 0.00 0.00 0.00 58 1010.3
20260830211304 63 53 1.0 1.0 0.00 0.00 0.00 58 1010.4
20260830210804 63 53 1.0 1.0 0.00 0.00 0.00 57 1010.4
20260830210304 63 53 1.0 1.0 0.00 0.00 0.00 57 1010.5
20260830205804 63 53 1.0 1.0 0.00 0.00 0.00 57 1010.7
20260830205305 63 53 1.0 1.0 0.00 0.00 0.00 57 1010.7
20260830204803 63 53 1.0 1.0 0.00 0.00 0.00 57 1010.3
20260830204304 63 53 1.0 1.0 0.00 0.00 0.00 57 1010.5
20260830203804 63 53 1.0 1.0 0.00 0.00 0.00 57 1010.5
20260830203304 63 53 1.0 1.0 0.00 0.00 0.00 58 1010.2
20260830202305 63 53 1.0 1.0 0.00 0.00 0.00 59 1010.5
20260830201804 63 53 1.0 1.0 0.00 0.00 0.00 59 1010.4
20260830201304 63 53 1.0 1.0 0.00 0.00 0.00 60 1010.3
20260830200804 63 53 1.0 1.0 0.00 0.00 0.00 60 1010.1
20260830200304 63 53 1.0 1.0 0.00 0.00 0.00 60 1010.4
20260830195804 62 53 1.0 1.0 0.00 0.00 0.00 60 1010.5
20260830195305 62 53 1.0 1.0 0.00 0.00 0.00 60 1010.6
20260830194803 62 53 1.0 1.0 0.00 0.00 0.00 59 1010.5
20260830194304 61 53 1.0 1.0 0.00 0.00 0.00 60 1010.8
20260830193804 60 53 1.0 1.0 0.00 0.00 0.00 62 1010.6
20260830193304 60 53 1.0 1.0 0.00 0.00 0.00 61 1011.0
20260830192804 60 53 1.0 1.0 0.00 0.00 0.00 61 1010.7
20260830192305 61 53 1.0 1.0 0.00 0.00 0.00 60 1010.9
20260830191304 62 53 1.0 1.0 0.00 0.00 0.00 59 1010.7
20260830190804 62 53 1.0 1.0 0.00 0.00 0.00 60 1010.9
20260830190304 61 53 1.0 1.0 0.00 0.00 0.00 60 1011.0
20260830185804 61 53 1.0 1.0 0.00 0.00 0.00 60 1010.8
20260830185306 61 53 1.0 1.0 0.00 0.00 0.00 61 1010.8
20260830184804 60 53 1.0 1.0 0.00 0.00 0.00 61 1011.2
20260830184304 60 53 1.0 1.0 0.00 0.00 0.00 61 1010.9
20260830183804 60 53 1.0 1.0 0.00 0.00 0.00 61 1010.7
20260830182804 59 53 1.0 1.0 0.00 0.00 0.00 62 1010.7
20260830182306 59 53 1.0 1.0 0.00 0.00 0.00 62 1010.6
20260830181804 59 53 1.0 1.0 0.00 0.00 0.00 61 1010.8
20260830181304 59 53 1.0 1.0 0.00 0.00 0.00 61 1010.9
20260830180804 59 53 1.0 1.0 0.00 0.00 0.00 62 1010.4
20260830180304 58 53 1.0 1.0 0.00 0.00 0.00 63 1010.5
20260830175803 57 53 1.0 1.0 0.00 0.00 0.00 64 1010.6
20260830175306 57 53 1.0 1.0 0.00 0.00 0.00 64 1010.4
20260830174804 57 53 1.0 1.0 0.00 0.00 0.00 64 1010.4
20260830174304 57 53 1.0 1.0 0.00 0.00 0.00 65 1010.6
20260830173804 57 53 1.0 1.0 0.00 0.00 0.00 64 1010.5
20260830173304 57 53 1.0 1.0 0.00 0.00 0.00 64 1010.6
20260830172803 57 53 1.0 1.0 0.00 0.00 0.00 64 1010.7
20260830172306 57 53 1.0 1.0 0.00 0.00 0.00 64 1010.3
20260830171804 57 53 1.0 1.0 0.00 0.00 0.00 64 1010.7
20260830170804 57 53 1.0 1.0 0.00 0.00 0.00 64 1010.5
20260830170304 57 53 1.0 1.0 0.00 0.00 0.00 64 1010.5
20260830165804 57 53 1.0 1.0 0.00 0.00 0.00 64 1010.7
20260830165306 56 53 1.0 1.0 0.00 0.00 0.00 65 1010.6
20260830164804 56 53 1.0 1.0 0.00 0.00 0.00 65 1010.6
20260830163803 56 53 1.0 1.0 0.00 0.00 0.00 66 1010.7
20260830163304 55 53 1.0 1.0 0.00 0.00 0.00 66 1010.8
20260830162804 55 53 1.0 1.0 0.00 0.00 0.00 67 1010.8
20260830162306 55 53 1.0 1.0 0.00 0.00 0.00 67 1010.6
20260830161804 54 53 1.0 1.0 0.00 0.00 0.00 68 1010.8
20260830161304 54 53 1.0 1.0 0.00 0.00 0.00 68 1010.7
20260830160804 54 53 1.0 1.0 0.00 0.00 0.00 68 1010.7
20260830155804 54 53 1.0 1.0 0.00 0.00 0.00 68 1010.7
20260830154804 54 53 1.0 1.0 0.00 0.00 0.00 68 1010.6
20260830154303 54 53 1.0 1.0 0.00 0.00 0.00 69 1010.7
20260830153304 54 53 1.0 1.0 0.00 0.00 0.00 68 1010.9
20260830152804 54 53 1.0 1.0 0.00 0.00 0.00 69 1010.9
20260830151804 54 53 1.0 1.0 0.00 0.00 0.00 67 1010.8
20260830151304 53 53 1.0 1.0 0.00 0.00 0.00 67 1011.0
20260830150303 53 53 1.0 1.0 0.00 0.00 0.00 68 1011.1
20260830145804 53 53 1.0 1.0 0.00 0.00 0.00 67 1011.1
20260830145306 53 53 1.0 1.0 0.00 0.00 0.00 68 1010.9
20260830144804 53 53 1.0 1.0 0.00 0.00 0.00 67 1010.9
20260830144304 53 53 1.0 1.0 0.00 0.00 0.00 68 1011.0
20260830143804 53 53 1.0 1.0 0.00 0.00 0.00 68 1010.9
20260830143304 53 53 1.0 1.0 0.00 0.00 0.00 68 1010.8
20260830142804 53 53 1.0 1.0 0.00 0.00 0.00 68 1010.9
20260830142306 53 53 1.0 1.0 0.00 0.00 0.00 68 1011.0
20260830141303 53 53 1.0 1.0 0.00 0.00 0.00 68 1010.8
20260830140804 53 53 1.0 1.0 0.00 0.00 0.00 68 1011.1
20260830140304 53 53 1.0 1.0 0.00 0.00 0.00 68 1011.0
20260830135804 53 53 1.0 1.0 0.00 0.00 0.00 67 1010.7
20260830134304 53 53 1.0 1.0 0.00 0.00 0.00 63 1010.8
20260830133803 53 53 1.0 1.0 0.00 0.00 0.00 63 1011.1
20260830133304 53 53 1.0 1.0 0.00 0.00 0.00 63 1010.9
20260830132804 53 53 1.0 1.0 0.00 0.00 0.00 63 1010.8
20260830132305 53 53 1.0 1.0 0.00 0.00 0.00 63 1010.8
20260830131804 53 53 1.0 1.0 0.00 0.00 0.00 63 1010.8
20260830131304 53 53 1.0 1.0 0.00 0.00 0.00 63 1010.7
20260830130804 53 53 1.0 1.0 0.00 0.00 0.00 63 1010.6
20260830130304 53 53 1.0 1.0 0.00 0.00 0.00 62 1010.6
20260830125803 54 53 1.0 1.0 0.00 0.00 0.00 62 1010.4
20260830125306 54 53 1.0 1.0 0.00 0.00 0.00 62 1010.6
20260830124803 54 53 1.0 1.0 0.00 0.00 0.00 62 1010.6
20260830124304 54 53 1.0 1.0 0.00 0.00 0.00 61 1010.8
20260830123804 54 53 1.0 1.0 0.00 0.00 0.00 62 1010.9
20260830123304 54 53 1.0 1.0 0.00 0.00 0.00 62 1010.8
20260830122804 54 53 1.0 1.0 0.00 0.00 0.00 62 1010.8
20260830122306 54 53 1.0 1.0 0.00 0.00 0.00 62 1010.9
20260830121804 54 53 1.0 1.0 0.00 0.00 0.00 62 1011.1
20260830121304 54 53 1.0 1.0 0.00 0.00 0.00 62 1010.7
20260830120804 53 53 1.0 1.0 0.00 0.00 0.00 62 1010.7
20260830120305 53 53 1.0 1.0 0.00 0.00 0.00 62 1010.7
20260830115804 53 53 1.0 1.0 0.00 0.00 0.00 62 1010.8
20260830115306 53 53 1.0 1.0 0.00 0.00 0.00 62 1010.6
20260830114803 53 53 1.0 1.0 0.00 0.00 0.00 62 1010.8
20260830114304 53 53 1.0 1.0 0.00 0.00 0.00 61 1010.8
20260830112804 54 53 1.0 1.0 0.00 0.00 0.00 62 1010.6
20260830112306 53 53 1.0 1.0 0.00 0.00 0.00 61 1011.0
20260830111804 53 53 1.0 1.0 0.00 0.00 0.00 62 1010.8
20260830111304 53 53 1.0 1.0 0.00 0.00 0.00 61 1010.7
20260830110804 54 53 1.0 1.0 0.00 0.00 0.00 61 1010.9
20260830110304 54 53 1.0 1.0 0.00 0.00 0.00 62 1010.8
20260830105804 53 53 1.0 1.0 0.00 0.00 0.00 62 1010.9
20260830105305 53 53 1.0 1.0 0.00 0.00 0.00 61 1010.8
20260830104804 53 53 1.0 1.0 0.00 0.00 0.00 62 1010.6
20260830104304 53 53 1.0 1.0 0.00 0.00 0.00 62 1010.7
20260830103304 53 53 1.0 1.0 0.00 0.00 0.00 64 1010.8
20260830102804 53 53 1.0 1.0 0.00 0.00 0.00 65 1010.8
20260830102306 53 53 1.0 1.0 0.00 0.00 0.00 64 1010.8
20260830101804 53 53 1.0 1.0 0.00 0.00 0.00 64 1010.6
20260830100803 53 53 1.0 1.0 0.00 0.00 0.00 64 1010.4
20260830100304 53 53 1.0 1.0 0.00 0.00 0.00 64 1010.3
20260830095804 53 53 1.0 1.0 0.00 0.00 0.00 65 1010.5
20260830095306 53 53 1.0 1.0 0.00 0.00 0.00 66 1010.5
20260830094804 53 53 1.0 1.0 0.00 0.00 0.00 66 1010.2
20260830093804 53 53 1.0 1.0 0.00 0.00 0.00 67 1010.5
20260830093304 52 53 1.0 1.0 0.00 0.00 0.00 67 1010.7
20260830092804 52 53 1.0 1.0 0.00 0.00 0.00 67 1010.8
20260830092305 52 53 1.0 1.0 0.00 0.00 0.00 67 1010.5
20260830091804 53 53 1.0 1.0 0.00 0.00 0.00 67 1010.7
20260830090804 53 53 1.0 1.0 0.00 0.00 0.00 66 1010.6
20260830090304 53 53 1.0 1.0 0.00 0.00 0.00 65 1010.7
20260830085804 53 53 1.0 1.0 0.00 0.00 0.00 65 1010.7
20260830085306 53 53 1.0 1.0 0.00 0.00 0.00 64 1010.8
20260830084803 54 53 1.0 1.0 0.00 0.00 0.00 63 1010.7
20260830084304 54 53 1.0 1.0 0.00 0.00 0.00 62 1010.5
20260830083804 54 53 1.0 1.0 0.00 0.00 0.00 62 1010.4
20260830083303 54 53 1.0 1.0 0.00 0.00 0.00 62 1010.6
20260830082803 54 53 1.0 1.0 0.00 0.00 0.00 62 1010.6